Regional Weather Roundup
Issued by NWS Goodland, KS

Home | Current Version | Previous Version | Text Only | Print | Product List | Glossary On
Versions: 1 2 3 4 5 6 7 8 9 10 11 12 13 14 15 16 17 18 19 20 21 22 23 24 25 26 27 28 29 30 31 32 33 34 35 36 37 38 39 40 41 42 43 44 45 46 47 48 49 50
000
ASUS43 KGLD 280908
RWRGLD

GOODLAND FORECAST AREA HOURLY WEATHER ROUNDUP
NATIONAL WEATHER SERVICE GOODLAND KS
200 AM MST TUE FEB 28 2017

...OFFICIAL OBSERVATIONS...

CITY           SKY/WX    TMP DP  RH WIND       PRES   REMARKS
GOODLAND KS    CLOUDY    28  20  71 W14       29.70R WCI  17
HILL CITY KS   CLOUDY    44  23  43 W16G25    29.63R
IMPERIAL NEB   CLEAR     31  24  75 NW16      29.70R WCI  20
MCCOOK NEB     CLEAR     33  26  75 NW16      29.66R
AKRON CO       CLOUDY    23  19  85 W7        29.72S
BURLINGTON CO  CLOUDY    26  19  74 NW12      29.72S WCI  16
LIMON CO       CLOUDY   N/A N/A N/A N10       29.70S
$$

...UNOFFICIAL OBSERVATIONS...

CITY           SKY/WX    TMP DP  RH WIND       PRES   REMARKS
LENORA KS        N/A     39  32  76 NW12        N/A
NORTON KS      CLEAR     37  19  48 W18       29.63R
SHARON SPRINGS   N/A     34  21  59 N15         N/A
TRIBUNE KS     CLOUDY    36  18  48 NW15G22   29.69
TRENTON NEB      N/A     31  32 100 NW12        N/A
KIT CARSON CO    N/A     29  20  69 MISG        N/A
YUMA CO        FAIR      27  23  86 NW9       29.72F
$$




USA.gov is the U.S. government's official web portal to all federal, state and local government web resources and services.